{"data":{"norad_id":60524,"epoch":"2026-09-22T11:44:31.270848Z","epoch_age_seconds":117246,"freshness":"FRESH","line1":"1 60524U 24149BJ  26265.48925082  .00021355  00000+0  43907-3 0  9997","line2":"2 60524  97.3747 351.2348 0003909 294.8557  65.2285 15.45990644117344","mean_motion":15.45990644,"eccentricity":0.0003909,"inclination_deg":97.3747,"raan_deg":351.2348,"arg_perigee_deg":294.8557,"mean_anomaly_deg":65.2285,"bstar":0.00043907,"rev_number":11734,"period_min":93.144160062588,"perigee_km":425.80811304486,"apogee_km":431.12951747123,"semimajor_km":6806.605815258,"source":"CELESTRAK","updated_at":"2026-09-23T09:00:20.666739Z"}}